Regional Weather Roundup
Issued by NWS

Home | Current Version | Previous Version | Text Only | Print | Product List | Glossary On
Versions: 1 2 3 4 5 6 7 8 9 10 11 12 13 14 15 16 17 18 19 20 21 22 23 24 25 26 27 28 29 30 31 32 33 34 35 36 37 38 39 40 41 42 43 44 45 46 47 48 49 50
632
ASUS44 KFWD 200601
RWRTX
NORTH TEXAS HOURLY WEATHER ROUNDUP
NATIONAL WEATHER SERVICE FORT WORTH TX
100 AM CDT SUN AUG 20 2017

NOTE: "FAIR" INDICATES FEW OR NO CLOUDS BELOW 12,000 FEET WITH NO
SIGNIFICANT WEATHER AND/OR OBSTRUCTIONS TO VISIBILITY.

TXZ118-119-200700-
DALLAS/FORT WORTH METROPLEX

CITY           SKY/WX    TMP DP  RH WIND       PRES   REMARKS
DFW AIRPORT    MOCLDY    88  72  58 SE12G21   29.96S HX  94
6HR MIN TEMP:  88; 6HR MAX TEMP:  95;

DALLAS LOVE    CLOUDY    88  72  58 S18G24    29.97S HX  94
6HR MIN TEMP:  88; 6HR MAX TEMP:  97;

FTW MEACHAM    CLOUDY    87  72  60 SE10      29.97S HX  93
6HR MIN TEMP:  87; 6HR MAX TEMP:  93;

DAL-EXECUTIVE  CLEAR     84  73  69 SE7       29.98R HX  90
6HR MIN TEMP:  84; 6HR MAX TEMP:  93;

FTW-ALLIANCE   CLOUDY    86  71  60 SE10      29.96F HX  91
6HR MIN TEMP:  80; 6HR MAX TEMP:  91;

FTW-NAS-JRB    CLOUDY    88  70  55 SE12      29.97S HX  93
6HR MIN TEMP:  88; 6HR MAX TEMP:  94;

ARLINGTON      CLOUDY    85  73  67 SE12      29.97F HX  91
6HR MIN TEMP:  85; 6HR MAX TEMP:  95;

GRAND PRAIRIE  CLOUDY    85  70  59 SE8       29.99S HX  90
6HR MIN TEMP:  85; 6HR MAX TEMP:  95;

ADDISON        CLOUDY    86  72  61 S15       29.99S HX  92
6HR MIN TEMP:  86; 6HR MAX TEMP:  94;

MESQUITE         N/A     80  74  83 CALM      29.98S
6HR MIN TEMP:  80; 6HR MAX TEMP:  91;

LANCASTER      PTCLDY    82  72  72 S3        29.99S
6HR MIN TEMP:  82; 6HR MAX TEMP:  95;

$$

TXZ091>094-102>105-117-120-121-131>134-200700-
NORTH CENTRAL TEXAS

CITY           SKY/WX    TMP DP  RH WIND       PRES   REMARKS
SHRMAN/DENISON MOCLDY    83  73  73 S13       29.99S
6HR MIN TEMP:  83; 6HR MAX TEMP:  90;

GAINESVILLE    CLOUDY    78  73  85 CALM      30.00S
6HR MIN TEMP:  77; 6HR MAX TEMP:  86;

BOWIE          CLOUDY    77  73  87 SE3       30.00S
6HR MIN TEMP:  77; 6HR MAX TEMP:  83;

BRIDGEPORT     CLOUDY    79  75  89 CALM      30.00R
6HR MIN TEMP:  77; 6HR MAX TEMP:  82;

DECATUR        CLOUDY    84  70  62 SE9         N/A
6HR MIN TEMP:  80; 6HR MAX TEMP:  84;

DENTON         CLOUDY    83  73  72 SE7       29.97S
6HR MIN TEMP:  81; 6HR MAX TEMP:  90;

MCKINNEY       CLOUDY    81  76  84 S5        29.98S
6HR MIN TEMP:  81; 6HR MAX TEMP:  90;

BONHAM         PTCLDY    81  73  78 S7        29.98S
ROCKWALL       CLOUDY    83  73  73 S6        29.98S
6HR MIN TEMP:  82; 6HR MAX TEMP:  91;

TERRELL        PTCLDY    82  73  74 S5        29.99R
6HR MIN TEMP:  82; 6HR MAX TEMP:  93;

WAXAHACHIE     CLEAR     83  73  70 SE6       30.00S
6HR MIN TEMP:  83; 6HR MAX TEMP:  93;

CLEBURNE       MOCLDY    82  73  74 SE9       30.01R
$$

TXZ083>090-098>101-113>116-127>130-139>142-154-155-200700-
WESTERN NORTH TEXAS

CITY           SKY/WX    TMP DP  RH WIND       PRES   REMARKS
WICHITA FALLS  MOCLDY    76  70  82 SE5       29.97S
6HR MIN TEMP:  74; 6HR MAX TEMP:  85;

WF-KICKAPOO    MOCLDY    78  71  77 S5        29.99S
6HR MIN TEMP:  78; 6HR MAX TEMP:  87;

VERNON         PTCLDY    76  65  70 CALM      29.99S
6HR MIN TEMP:  75; 6HR MAX TEMP:  99;

ABILENE        CLEAR     74  69  85 SE6       30.02S
6HR MIN TEMP:  74; 6HR MAX TEMP:  80; 6HR PCP: TRACE;

ABILENE-DYESS  CLEAR     72  72 100 S3        30.00F
6HR MIN TEMP:  72; 6HR MAX TEMP:  84;

BRECKENRIDGE   CLOUDY    77  74  90 E3        30.00S
6HR MIN TEMP:  77; 6HR MAX TEMP:  81;

CISCO          PTCLDY    73  70  88 SE7       30.02S
EASTLAND       MOCLDY    79  68  69 S3        30.01S
6HR MIN TEMP:  74; 6HR MAX TEMP:  82;

RANGER         MOCLDY    77  69  76 S5        30.02S
6HR MIN TEMP:  67; 6HR MAX TEMP:  96;

MINERAL WELLS  CLOUDY    80  71  74 SE8       29.97S
6HR MIN TEMP:  77; 6HR MAX TEMP:  83; 6HR PCP: TRACE;

STEPHENVILLE   PTCLDY    78  67  67 CALM      30.03S
6HR MIN TEMP:  78; 6HR MAX TEMP:  92;

COMANCHE       CLEAR     80  64  57 S6        30.02S
6HR MIN TEMP:  79; 6HR MAX TEMP:  92;

COLEMAN        CLEAR     79  62  54 S6        30.03S
6HR MIN TEMP:  79; 6HR MAX TEMP:  95;

$$

TXZ143>147-156>162-174-175-200700-
CENTRAL TEXAS

CITY           SKY/WX    TMP DP  RH WIND       PRES   REMARKS
WACO           CLEAR     86  68  54 S13       29.98R
6HR MIN TEMP:  84; 6HR MAX TEMP:  97;

WACO-MCGREGOR  CLEAR     82  68  62 S7        29.99R
6HR MIN TEMP:  82; 6HR MAX TEMP:  99;

HILLSBORO      PTCLDY    83  70  65 SE6       29.99R
6HR MIN TEMP:  83; 6HR MAX TEMP:  97;

CORSICANA      CLEAR     83  74  74 SE6       29.99S
6HR MIN TEMP:  83; 6HR MAX TEMP:  96;

MEXIA          CLEAR     81  71  71 SE7       29.99R
6HR MIN TEMP:  81; 6HR MAX TEMP:  96;

HEARNE         CLEAR     81  72  74 SE5       30.00S
6HR MIN TEMP:  81; 6HR MAX TEMP:  95;

CAMERON        CLEAR     84  69  62 S10       29.99R
6HR MIN TEMP:  84; 6HR MAX TEMP:  96;

TEMPLE         CLEAR     84  69  60 S12       30.00R
6HR MIN TEMP:  84; 6HR MAX TEMP:  97;

KILLEEN        CLEAR     79  67  67 SE7       30.00R
KILLEEN-SKYLRK CLEAR     84  69  60 S9        30.00R
6HR MIN TEMP:  84; 6HR MAX TEMP:  96;

FORT HOOD      CLEAR     83  68  59 S10       29.97R
6HR MIN TEMP:  83; 6HR MAX TEMP:  95;

HAMILTON       CLEAR     79  64  61 S7        30.02S
6HR MIN TEMP:  76; 6HR MAX TEMP:  96;

LAMPASAS       CLEAR     78  68  72 SE5       30.01R
6HR MIN TEMP:  78; 6HR MAX TEMP:  96;

$$

TXZ095>097-106>112-122>126-135>138-148>153-164>167-200700-
EAST TEXAS

CITY           SKY/WX    TMP DP  RH WIND       PRES   REMARKS
PARIS          MOCLDY    80  75  84 S6        29.99S
6HR MIN TEMP:  79; 6HR MAX TEMP:  90;

SULPHUR SPRNGS CLEAR     83  74  73 S6        30.00S HX  90
6HR MIN TEMP:  83; 6HR MAX TEMP:  92;

GILMER         PTCLDY    81  75  82 S3        29.99F
6HR MIN TEMP:  80; 6HR MAX TEMP:  92;

MINEOLA        CLOUDY    81  75  83 SE5       29.98F
TYLER          PTCLDY    81  77  88 S7        29.99S
6HR MIN TEMP:  81; 6HR MAX TEMP:  92;

LONGVIEW       CLEAR     81  77  88 S5        29.98S
6HR MIN TEMP:  80; 6HR MAX TEMP:  93;

MARSHALL         N/A     76  74  92 CALM      30.01S
6HR MIN TEMP:  76; 6HR MAX TEMP:  90;

ATHENS         PTCLDY    79  72  78 CALM      29.98S
PALESTINE      CLEAR     83  74  74 SE3       30.00S
JACKSONVILLE   CLEAR     82  74  77 S5        30.03S
HENDERSON      PTCLDY    78  75  89 CALM      30.00F
6HR MIN TEMP:  78; 6HR MAX TEMP:  89;

CENTER         PTCLDY    82  80  95 CALM      30.00S HX  92
6HR MIN TEMP:  81; 6HR MAX TEMP:  95;

NACOGDOCHES    CLEAR     77  75  94 CALM      30.00S
6HR MIN TEMP:  77; 6HR MAX TEMP:  93;

LUFKIN         CLEAR     79  75  87 SE5       29.99S
6HR MIN TEMP:  78; 6HR MAX TEMP:  93;

$$

SUPPLEMENTAL OBSERVATIONS (NWS FORT WORTH AREA)

CITY           SKY/WX    TMP DP  RH WIND       PRES   REMARKS
$$

SUPPLEMENTAL OBSERVATIONS (NWS NORMAN AREA)

CITY           SKY/WX    TMP DP  RH WIND       PRES   REMARKS
GOODLETT         N/A     74  65  71 E9        30.00R
ODELL            N/A     74  69  82 SE7       29.99F
CROWELL          N/A     74  70  89 SE3       30.00S
KNOX CITY        N/A     79  66  65 SE1       29.99S
SEYMOUR          N/A     77  70  79 SE3       29.99S
$$

SUPPLEMENTAL OBSERVATIONS (NWS SAN ANGELO AREA)

CITY           SKY/WX    TMP DP  RH WIND       PRES   REMARKS
WEINERT          N/A     78  69  75 SE8



USA.gov is the U.S. government's official web portal to all federal, state and local government web resources and services.